Location: La Pernelle
(49.6188°N, 1.2999°W)
Time: 09:32:45
(UTC+00:00)

ALOS 2 - Pass Details

Date: 12 June 2021
Orbit: 630 x 632 km, 97.9° (Epoch: 01 August)

Event Time Altitude Azimuth Distance (km) Brightness Sun altitude
Exits shadow 22:26:04 14° 115° (ESE) 1,776 4.5 -13.9°
Maximum altitude 22:29:01 27° 64° (ENE) 1,230 4.1 -14.1°
Drops below altitude 10° 22:32:42 10° 7° (N) 2,027 6.2 -14.3°
Sets 22:35:10 0° 356° (N) 2,940 7.6 -14.5°
